Weather History for Ainsworth, NE

Change the Weather History Date:

Monday, February 18, 2013

  Actual Average Record
Temperature  
Mean Temperature 28 °F -  
Max Temperature 38 °F 38 °F 62 °F (2004)
Min Temperature 19 °F 19 °F -18 °F (2006)
Degree Days  
Heating Degree Days 36    
Moisture  
Dew Point 19 °F    
Average Humidity 63    
Maximum Humidity 74    
Minimum Humidity 50    
Precipitation  
Precipitation 0.00 in - - ()
Sea Level Pressure  
Sea Level Pressure 29.88 in    
Wind  
Wind Speed 21 mph (NW)    
Max Wind Speed 34 mph    
Max Gust Speed 45 mph    
Visibility 10 miles    
Events      
Averages and records for this station are not official NWS values.
T = Trace of Precipitation, MM = Missing Value Source: NWS Daily Summary

Daily Weather History Graph

Daily Weather History Graph

Search for Another Location

Airport:

Trip Planner

Search our weather history database for the weather conditions in past years. The results will help you decide how hot, cold, wet, or windy it might be!

Date:

Astronomy

Feb. 18, 2013 Rise Set
Actual Time 7:32 AM CST 6:16 PM CST
Civil Twilight 7:03 AM CST 6:45 PM CST
Nautical Twilight 6:30 AM CST 7:17 PM CST
Astronomical Twilight 5:57 AM CST 7:50 PM CST
Moon 11:59 AM CST 2:16 AM CST
Length of Visible Light 11h 41m
Length of Day
10h 44m
First Quarter, 58% of the Moon is Illuminated
Feb 18
First Quarter
Feb 25
Full
Mar 4
Last Quarter
Mar 11
New
Mar 19
First Quarter

Hourly Weather History & Observations

Time (CST) Temp. Windchill Dew Point Humidity Pressure Visibility Wind Dir Wind Speed Gust Speed Precip Events Conditions
12:15 AM 38.8 °F 29.4 °F 27.7 °F 64% 29.68 in 10.0 mi NW 18.4 mph 23.0 mph N/A   Overcast
12:35 AM 38.3 °F 29.3 °F 27.5 °F 65% 29.69 in 10.0 mi NW 16.1 mph - N/A   Overcast
12:55 AM 37.6 °F 29.1 °F 27.3 °F 66% 29.69 in 10.0 mi NNW 13.8 mph - N/A   Overcast
1:15 AM 37.4 °F 28.2 °F 27.5 °F 67% 29.70 in 10.0 mi NW 16.1 mph 20.7 mph N/A   Overcast
1:35 AM 36.7 °F 27.6 °F 27.3 °F 69% 29.70 in 10.0 mi NW 15.0 mph 21.9 mph N/A   Overcast
1:55 AM 36.1 °F 27.7 °F 27.3 °F 70% 29.70 in 10.0 mi NW 12.7 mph 23.0 mph N/A   Overcast
2:15 AM 35.6 °F 25.9 °F 27.3 °F 72% 29.71 in 10.0 mi NW 16.1 mph 24.2 mph N/A   Mostly Cloudy
2:35 AM 35.2 °F 25.8 °F 27.1 °F 72% 29.72 in 10.0 mi NW 15.0 mph 23.0 mph N/A   Overcast
2:55 AM 34.9 °F 23.6 °F 26.8 °F 72% 29.72 in 10.0 mi NW 20.7 mph 26.5 mph N/A   Mostly Cloudy
3:15 AM 35.1 °F 23.3 °F 26.2 °F 70% 29.71 in 10.0 mi NW 23.0 mph 34.5 mph N/A   Mostly Cloudy
3:35 AM 34.9 °F 22.2 °F 25.5 °F 69% 29.71 in 10.0 mi NNW 26.5 mph 39.1 mph N/A   Overcast
3:55 AM 34.3 °F 21.3 °F 25.5 °F 70% 29.71 in 10.0 mi NW 27.6 mph 38.0 mph N/A   Mostly Cloudy
4:15 AM 34.3 °F 22.3 °F 25.5 °F 70% 29.71 in 10.0 mi NW 23.0 mph 33.4 mph N/A   Mostly Cloudy
4:35 AM 34.0 °F 21.8 °F 25.5 °F 71% 29.72 in 10.0 mi NW 23.0 mph 31.1 mph N/A   Mostly Cloudy
4:55 AM 34.3 °F 23.2 °F 25.7 °F 71% 29.72 in 10.0 mi NW 19.6 mph 27.6 mph N/A   Overcast
5:15 AM 34.7 °F 23.1 °F 25.3 °F 69% 29.73 in 10.0 mi NNW 21.9 mph 29.9 mph N/A   Overcast
5:35 AM 34.7 °F 22.2 °F 24.8 °F 67% 29.72 in 10.0 mi NW 25.3 mph 32.2 mph N/A   Overcast
5:55 AM 34.7 °F 22.8 °F 24.1 °F 65% 29.74 in 10.0 mi NW 23.0 mph 36.8 mph N/A   Overcast
6:15 AM 34.2 °F 19.7 °F 21.9 °F 61% 29.75 in 10.0 mi NNW 34.5 mph 42.6 mph N/A   Overcast
6:35 AM 33.8 °F 20.3 °F 22.3 °F 63% 29.76 in 10.0 mi NW 28.8 mph 33.4 mph N/A   Overcast
6:55 AM 33.8 °F 20.3 °F 22.6 °F 64% 29.76 in 10.0 mi NW 28.8 mph 39.1 mph N/A   Overcast
7:15 AM 32.5 °F 19.1 °F 23.4 °F 69% 29.78 in 10.0 mi NNW 26.5 mph 35.7 mph N/A   Overcast
7:35 AM 32.0 °F 19.2 °F 23.0 °F 69% 29.78 in 10.0 mi NW 23.0 mph 34.5 mph N/A   Overcast
7:55 AM 31.3 °F 16.2 °F 23.0 °F 71% 29.81 in 10.0 mi NNW 32.2 mph 38.0 mph N/A   Overcast
8:15 AM 30.4 °F 15.4 °F 21.9 °F 71% 29.82 in 10.0 mi NNW 29.9 mph 39.1 mph N/A   Overcast
8:35 AM 27.9 °F 12.0 °F 19.2 °F 70% 29.84 in 10.0 mi NNW 29.9 mph 38.0 mph N/A   Overcast
8:55 AM 27.1 °F 11.6 °F 18.3 °F 69% 29.85 in 10.0 mi NW 27.6 mph 41.4 mph N/A   Overcast
9:15 AM 27.0 °F 10.5 °F 18.1 °F 69% 29.85 in 10.0 mi NNW 31.1 mph 39.1 mph N/A   Overcast
9:35 AM 27.0 °F 10.0 °F 17.8 °F 68% 29.86 in 10.0 mi NNW 33.4 mph 40.3 mph N/A   Overcast
9:55 AM 27.1 °F 12.1 °F 18.0 °F 68% 29.87 in 10.0 mi NNW 25.3 mph 42.6 mph N/A   Overcast
10:15 AM 27.3 °F 11.3 °F 17.4 °F 66% 29.88 in 10.0 mi NNW 29.9 mph 41.4 mph N/A   Overcast
10:35 AM 27.3 °F 12.1 °F 15.8 °F 62% 29.89 in 10.0 mi NNW 26.5 mph 44.9 mph N/A   Overcast
10:55 AM 27.3 °F 11.5 °F 15.3 °F 61% 29.90 in 10.0 mi NNW 28.8 mph 41.4 mph N/A   Overcast
11:15 AM 27.5 °F 11.3 °F 16.0 °F 62% 29.91 in 10.0 mi NNW 31.1 mph 39.1 mph N/A   Overcast
11:35 AM 28.2 °F 13.0 °F 16.5 °F 62% 29.91 in 10.0 mi NW 27.6 mph 36.8 mph N/A   Overcast
11:55 AM 28.8 °F 12.3 °F 16.7 °F 61% 29.92 in 10.0 mi NW 34.5 mph 43.7 mph N/A   Overcast
12:15 PM 28.9 °F 13.5 °F 16.3 °F 59% 29.93 in 10.0 mi NNW 29.9 mph 38.0 mph N/A   Overcast
12:35 PM 29.5 °F 14.2 °F 16.2 °F 58% 29.93 in 10.0 mi NNW 29.9 mph 38.0 mph N/A   Overcast
12:55 PM 29.5 °F 14.2 °F 16.3 °F 58% 29.93 in 10.0 mi NNW 29.9 mph 39.1 mph N/A   Overcast
1:15 PM 28.9 °F 14.3 °F 16.3 °F 59% 29.93 in 10.0 mi NW 26.5 mph 33.4 mph N/A   Overcast
1:35 PM 29.5 °F 16.5 °F 16.2 °F 58% 29.93 in 10.0 mi NW 20.7 mph 31.1 mph N/A   Mostly Cloudy
1:55 PM 31.1 °F 17.7 °F 16.5 °F 55% 29.93 in 10.0 mi NW 24.2 mph 29.9 mph N/A   Mostly Cloudy
2:15 PM 31.6 °F 17.6 °F 16.5 °F 54% 29.94 in 10.0 mi NNW 27.6 mph 33.4 mph N/A   Scattered Clouds
2:35 PM 31.8 °F 17.9 °F 16.3 °F 53% 29.94 in 10.0 mi NNW 27.6 mph 31.1 mph N/A   Mostly Cloudy
2:55 PM 32.0 °F 18.9 °F 15.4 °F 51% 29.94 in 10.0 mi NW 24.2 mph 33.4 mph N/A   Mostly Cloudy
3:15 PM 32.0 °F 19.5 °F 16.0 °F 52% 29.94 in 10.0 mi NW 21.9 mph 26.5 mph N/A   Mostly Cloudy
3:35 PM 32.0 °F 20.1 °F 15.1 °F 50% 29.94 in 10.0 mi NNW 19.6 mph 27.6 mph N/A   Scattered Clouds
3:55 PM 32.2 °F 20.0 °F 15.6 °F 51% 29.95 in 10.0 mi NW 20.7 mph 27.6 mph N/A   Scattered Clouds
4:15 PM 32.2 °F 18.9 °F 15.6 °F 51% 29.95 in 10.0 mi NNW 25.3 mph 29.9 mph N/A   Mostly Cloudy
4:35 PM 31.6 °F 19.0 °F 15.4 °F 51% 29.96 in 10.0 mi NNW 21.9 mph 25.3 mph N/A   Scattered Clouds
4:55 PM 31.5 °F 19.8 °F 14.9 °F 50% 29.96 in 10.0 mi NNW 18.4 mph 24.2 mph N/A   Scattered Clouds
5:35 PM 30.7 °F 18.8 °F 15.1 °F 52% 29.96 in 10.0 mi NNW 18.4 mph 25.3 mph N/A   Clear
5:55 PM 28.9 °F 18.2 °F 15.8 °F 58% 29.97 in 10.0 mi NNW 13.8 mph - N/A   Clear
6:15 PM 29.3 °F 19.1 °F 15.8 °F 57% 29.98 in 10.0 mi NNW 12.7 mph - N/A   Mostly Cloudy
6:35 PM 28.9 °F 18.2 °F 15.6 °F 58% 29.98 in 10.0 mi NW 13.8 mph - N/A   Mostly Cloudy
6:55 PM 28.9 °F 17.7 °F 15.3 °F 57% 29.99 in 10.0 mi NNW 15.0 mph 20.7 mph N/A   Mostly Cloudy
7:15 PM 28.4 °F 16.2 °F 15.1 °F 57% 30.01 in 10.0 mi NNW 17.3 mph 20.7 mph N/A   Mostly Cloudy
7:35 PM 28.0 °F 14.3 °F 14.7 °F 57% 30.01 in 10.0 mi NNW 21.9 mph 27.6 mph N/A   Mostly Cloudy
7:55 PM 26.4 °F 12.1 °F 16.5 °F 66% 30.03 in 10.0 mi NNW 21.9 mph 29.9 mph N/A   Mostly Cloudy
8:15 PM 25.5 °F 11.6 °F 15.8 °F 67% 30.04 in 10.0 mi NNW 19.6 mph 27.6 mph N/A   Mostly Cloudy
8:35 PM 24.8 °F 10.7 °F 14.5 °F 65% 30.04 in 10.0 mi NNW 19.6 mph 24.2 mph N/A   Mostly Cloudy
8:55 PM 23.9 °F 9.5 °F 12.2 °F 61% 30.05 in 10.0 mi NNW 19.6 mph 29.9 mph N/A   Scattered Clouds
9:15 PM 23.4 °F 7.7 °F 11.3 °F 60% 30.06 in 10.0 mi NNW 23.0 mph 26.5 mph N/A   Clear
9:35 PM 22.6 °F 9.2 °F 11.3 °F 62% 30.07 in 10.0 mi NNW 16.1 mph - N/A   Clear
9:55 PM 22.1 °F 9.5 °F 11.3 °F 63% 30.07 in 10.0 mi NNW 13.8 mph - N/A   Clear
10:15 PM 21.6 °F 8.8 °F 11.7 °F 66% 30.08 in 10.0 mi NNW 13.8 mph - N/A   Clear
10:35 PM 20.5 °F 11.7 °F 11.8 °F 69% 30.08 in 10.0 mi NNW 6.9 mph - N/A   Clear
10:55 PM 19.8 °F 8.3 °F 12.6 °F 74% 30.09 in 10.0 mi NNW 10.4 mph - N/A   Clear
11:15 PM 19.9 °F 6.2 °F 12.2 °F 72% 30.09 in 10.0 mi NNW 15.0 mph - N/A   Clear
11:35 PM 19.4 °F 7.2 °F 12.2 °F 74% 30.10 in 10.0 mi NW 11.5 mph - N/A   Clear
11:55 PM 19.4 °F 7.2 °F 12.2 °F 74% 30.10 in 10.0 mi NW 11.5 mph - N/A   Clear